Hourly Data Report for September 16, 2017

All times are specified in Local Standard Time (LST). Add 1 hour to adjust for Daylight Saving Time where and when it is observed.

CAPE DORSET A
NUNAVUT

64°13'49.000" N
76°31'30.000" W
48.20 m
2400637
71366
YTE

Download Data

Hourly Data (September 2017)
Hourly Data Report for September 16, 2017
Temp Definition
°C
Dew Point Temp Definition
°C
Rel Hum Definition
%
Wind Dir Definition
10's deg

Wind Spd Definition
km/h
Visibility Definition
km
Stn Press Definition
kPa
Hmdx Definition


Wind Chill Definition


Weather Definition


TIME
00:00 Legend Double Dagger 0.1 -1.7 88 28 18 16.1 100.76     LegendNANA
01:00 Legend Double Dagger -0.6 -1.3 95 28 9 16.1 100.80   -4 LegendNANA
02:00 Legend Double Dagger -1.0 -1.4 97 27 11 16.1 100.83   -5 LegendNANA
03:00 Legend Double Dagger -1.8 -2.1 98 25 21 16.1 100.81   -8 LegendNANA
04:00 Legend Double Dagger -1.6 -2.2 96 24 17 16.1 100.87   -7 LegendNANA
05:00 Legend Double Dagger -2.0 -2.0 100 23 22 1.0 100.89   -8 Fog
06:00 Legend Double Dagger -0.9 -0.9 100 27 18 14.5 100.92   -6 LegendNANA
07:00 Legend Double Dagger -0.1 -1.0 94 26 9 16.1 100.97   -3 LegendNANA
08:00 Legend Double Dagger 0.1 -0.6 95 27 11 16.1 100.98     LegendNANA
09:00 Legend Double Dagger 0.7 -0.1 95 22 22 16.1 100.97     LegendNANA
10:00 Legend Double Dagger 2.0 0.5 90 26 30 16.1 100.97     LegendNANA
11:00 Legend Double Dagger 2.8 0.7 86 26 26 16.1 100.96     LegendNANA
12:00 Legend Double Dagger 1.1 0.5 96 25 21 9.7 100.97     Fog
13:00 Legend Double Dagger 1.1 0.7 97 25 21 11.3 100.99     LegendNANA
14:00 Legend Double Dagger 1.8 0.9 93 26 18 16.1 101.01     LegendNANA
15:00 Legend Double Dagger 3.0 0.7 85 25 21 16.1 100.97     LegendNANA
16:00 Legend Double Dagger 3.4 0.6 82 27 28 16.1 100.96     LegendNANA
17:00 Legend Double Dagger 3.0 -0.6 77 29 24 16.1 101.03     LegendNANA
18:00 Legend Double Dagger 2.6 -0.3 81 29 21 16.1 101.06     LegendNANA
19:00 Legend Double Dagger 2.1 -0.7 82 29 18 16.1 101.09     LegendNANA
20:00 Legend Double Dagger 1.7 -0.6 85 29 15 16.1 101.13     LegendNANA
21:00 Legend Double Dagger 1.4 -0.8 85 28 15 16.1 101.14     LegendNANA
22:00 Legend Double Dagger 1.3 -1.0 84 29 9 16.1 101.17     LegendNANA
23:00 Legend Double Dagger 0.7 -0.9 89 26 15 16.1 101.18     LegendNANA

Notes on Data Quality.

Legend

  • E = Estimated
  • M = Missing
  • NA = Not Available
  • ‡ = Partner data that is not subject to review by the National Climate Archives
Date modified: